EW5860 Weather Reports


time (UTC)temp
C
wind
direction
speed
KPH
gust
KPH
rain 1hr
cm
rain 24hr
cm
rain mn
cm
humidity
%
barometer
mb
20260906231535 21 254 0.0 0.0 0.00 0.00 0.00 72 1015.0
20260906230035 23 254 0.0 0.0 0.00 0.00 0.00 68 1014.9
20260906224535 24 294 0.0 1.6 0.00 0.00 0.00 66 1014.9
20260906223033 26 325 0.0 1.6 0.00 0.00 0.00 58 1015.1
20260906221550 26 336 0.0 1.6 0.00 0.00 0.00 51 1015.0
20260906220033 26 308 0.0 1.6 0.00 0.00 0.00 52 1014.9
20260906214531 26 30 0.0 3.2 0.00 0.00 0.00 52 1014.8
20260906213030 26 21 0.0 3.2 0.00 0.00 0.00 54 1014.7
20260906211529 26 125 0.0 3.2 0.00 0.00 0.00 53 1014.7
20260906210029 26 57 0.0 6.4 0.00 0.00 0.00 54 1014.8
20260906204527 26 254 1.6 6.4 0.00 0.00 0.00 55 1014.6
20260906203035 26 38 0.0 3.2 0.00 0.00 0.00 55 1014.6
20260906201524 25 327 0.0 6.4 0.00 0.00 0.00 57 1014.6
20260906200029 25 292 0.0 9.7 0.00 0.00 0.00 57 1014.8
20260906194523 25 45 0.0 12.9 0.00 0.00 0.00 56 1014.8
20260906193022 25 236 9.7 16.1 0.00 0.00 0.00 57 1014.8
20260906191522 25 13 1.6 9.7 0.00 0.00 0.00 58 1014.8
20260906190022 26 320 0.0 4.8 0.00 0.00 0.00 55 1014.8
20260906184524 25 77 0.0 1.6 0.00 0.00 0.00 57 1014.9
20260906183039 25 43 6.4 14.5 0.00 0.00 0.00 56 1015.1
20260906181518 25 96 1.6 6.4 0.00 0.00 0.00 59 1015.1
20260906180019 24 86 0.0 4.8 0.00 0.00 0.00 63 1015.3
20260906174513 23 229 1.6 6.4 0.00 0.00 0.00 67 1015.4
20260906173013 22 42 0.0 3.2 0.00 0.00 0.00 70 1015.5
20260906171518 22 178 1.6 9.7 0.00 0.00 0.00 70 1015.5
20260906170013 23 341 0.0 6.4 0.00 0.00 0.00 66 1015.4
20260906164513 24 300 0.0 8.0 0.00 0.00 0.00 66 1015.5
20260906163012 23 15 0.0 3.2 0.00 0.00 0.00 69 1015.5
20260906161510 24 319 0.0 4.8 0.00 0.00 0.00 67 1015.4
20260906160014 24 76 0.0 4.8 0.00 0.00 0.00 68 1015.5
20260906154506 23 92 0.0 3.2 0.00 0.00 0.00 72 1015.6
20260906153004 22 44 1.6 3.2 0.00 0.00 0.00 72 1015.7
20260906151505 22 38 1.6 4.8 0.00 0.00 0.00 72 1015.5
20260906144606 21 121 0.0 3.2 0.00 0.00 0.00 77 1015.6
20260906143057 22 22 0.0 3.2 0.00 0.00 0.00 76 1015.5
20260906141556 21 49 0.0 4.8 0.00 0.00 0.00 77 1015.4
20260906140055 22 44 0.0 3.2 0.00 0.00 0.00 76 1015.3
20260906134556 21 35 0.0 3.2 0.00 0.00 0.00 78 1015.2
20260906133047 21 49 0.0 1.6 0.00 0.00 0.00 82 1015.1
20260906131543 20 75 0.0 3.2 0.00 0.00 0.00 84 1015.0
20260906130040 19 304 0.0 1.6 0.00 0.00 0.00 87 1015.1
20260906124536 18 12 0.0 3.2 0.00 0.00 0.00 88 1015.1
20260906123038 18 248 0.0 4.8 0.00 0.00 0.00 88 1014.8
20260906121540 17 248 1.6 8.0 0.00 0.00 0.00 89 1014.8
20260906120130 17 224 0.0 4.8 0.00 0.00 0.00 90 1014.7
20260906114533 17 246 0.0 3.2 0.00 0.00 0.00 91 1014.5
20260906113041 17 319 0.0 3.2 0.00 0.00 0.00 92 1014.4
20260906111524 16 218 0.0 1.6 0.00 0.00 0.00 92 1014.1
20260906110022 16 40 0.0 3.2 0.00 0.00 0.00 92 1014.1
20260906104527 16 37 0.0 3.2 0.00 0.00 0.00 92 1013.9
20260906103018 16 38 0.0 1.6 0.00 0.00 0.00 92 1013.6
20260906101517 16 346 0.0 1.6 0.00 0.00 0.00 92 1013.5
20260906100018 16 215 0.0 4.8 0.00 0.00 0.00 93 1013.2
20260906094517 16 208 0.0 0.0 0.00 0.00 0.00 92 1013.2
20260906093012 16 207 0.0 3.2 0.00 0.00 0.00 92 1013.1
20260906091523 16 238 0.0 1.6 0.00 0.00 0.00 92 1012.7
20260906090010 16 355 0.0 3.2 0.00 0.00 0.00 91 1012.5
20260906084510 16 31 0.0 3.2 0.00 0.00 0.00 93 1012.4
20260906083013 16 66 0.0 1.6 0.00 0.00 0.00 93 1012.5
20260906081512 16 66 0.0 1.6 0.00 0.00 0.00 93 1012.2
20260906080007 16 74 0.0 1.6 0.00 0.00 0.00 93 1012.2
20260906074512 16 190 0.0 0.0 0.00 0.00 0.00 94 1012.2
20260906073005 16 205 0.0 0.0 0.00 0.00 0.00 93 1012.2
20260906071506 16 205 0.0 1.6 0.00 0.00 0.00 92 1012.3
20260906070003 16 250 0.0 0.0 0.00 0.00 0.00 91 1012.4
20260906064505 16 250 0.0 0.0 0.00 0.00 0.00 91 1012.4
20260906063002 16 11 0.0 1.6 0.00 0.00 0.00 91 1012.4
20260906061502 17 324 0.0 1.6 0.00 0.00 0.00 90 1012.4
20260906054600 17 337 0.0 0.0 0.00 0.00 0.00 88 1012.6
20260906053057 17 121 0.0 1.6 0.00 0.00 0.00 87 1012.6
20260906051602 17 261 0.0 1.6 0.00 0.00 0.00 89 1012.7
20260906050055 17 278 0.0 0.0 0.00 0.00 0.00 90 1012.6
20260906044553 17 278 0.0 1.6 0.00 0.00 0.00 91 1012.6
20260906043049 16 260 0.0 1.6 0.00 0.00 0.00 93 1012.7
20260906041546 16 186 0.0 0.0 0.00 0.00 0.00 94 1012.8
20260906040047 16 186 0.0 0.0 0.00 0.00 0.00 94 1012.7
20260906034543 16 186 0.0 0.0 0.00 0.13 0.00 94 1012.6
20260906033047 16 186 0.0 0.0 0.00 0.13 0.00 94 1012.5
20260906031554 16 186 0.0 0.0 0.00 0.13 0.00 93 1012.6
20260906030040 16 186 0.0 0.0 0.00 0.13 0.00 94 1012.5
20260906024539 16 186 0.0 0.0 0.00 0.13 0.00 94 1012.2
20260906023038 16 186 0.0 0.0 0.00 0.13 0.00 93 1012.3
20260906021536 16 186 0.0 0.0 0.00 0.13 0.00 93 1012.2
20260906020034 17 186 0.0 0.0 0.00 0.13 0.00 92 1012.2
20260906014536 17 186 0.0 0.0 0.00 0.13 0.00 91 1012.1
20260906013029 17 186 0.0 0.0 0.00 0.13 0.00 91 1012.0
20260906011535 17 186 0.0 0.0 0.00 0.13 0.00 91 1011.9
20260906010031 17 186 0.0 0.0 0.00 0.13 0.00 91 1011.8
20260906004525 18 186 0.0 0.0 0.00 0.13 0.00 90 1011.5
20260906003024 18 186 0.0 0.0 0.00 0.13 0.00 89 1011.2
20260906001520 18 186 0.0 0.0 0.00 0.13 0.00 87 1011.0
20260906000018 19 186 0.0 0.0 0.00 0.13 0.00 85 1010.9
20260905234517 20 186 0.0 0.0 0.00 0.13 0.00 82 1010.7
20260905233017 21 186 0.0 0.0 0.00 0.13 0.00 77 1010.6